Regional Weather Roundup
Issued by NWS Charleston, SC

Current Version | Previous Version | Graphics & Text | Print | Product List | Glossary On
Versions: 1 2 3 4 5 6 7 8 9 10 11 12 13 14 15 16 17 18 19 20 21 22 23 24 25 26 27 28 29 30 31 32 33 34 35 36 37 38 39 40 41 42 43 44 45 46 47 48 49 50
242
ASUS42 KCHS 100412
RWRCHS

REGIONAL WEATHER ROUNDUP
NATIONAL WEATHER SERVICE CHARLESTON SC
1100 PM EST TUE FEB 09 2016

NOTE: "FAIR" INDICATES FEW OR NO CLOUDS BELOW 12,000 FEET WITH NO
SIGNIFICANT WEATHER AND/OR OBSTRUCTIONS TO VISIBILITY.

NOT ALL STATIONS ARE QUALITY CONTROLLED BY THE NATIONAL
WEATHER SERVICE. USE DATA WITH CAUTION...ESPECIALLY
DEWPOINT OBSERVATIONS.

SCZ027-030-031-034>040-042>050-100500-
...SOUTHEAST SOUTH CAROLINA...

CITY           SKY/WX    TMP DP  RH WIND       PRES   REMARKS
N CHARLESTON   PTCLDY    38  19  46 W14G24    29.95S WCI  30
WATERFRONT PRK   N/A     39  24  55 W7G18     29.80R WCI  34
MOUNT PLEASANT FAIR      37  23  56 W12G20    29.96R WCI  30
JOHNS ISLAND   FAIR      39  23  52 W13G26    29.96S WCI  32
PINOPOLIS        N/A     39  25  56 W15       29.86R WCI  31
MONCKS CORNER  FAIR      34  18  51 W8        29.94S WCI  27
SUMMERVILLE    FAIR      36  21  55 W17G24    29.97R WCI  25
BEAUFORT MCAS  CLEAR     38  21  50 W14G26    30.00R WCI  30
BEAUFORT ARPT  FAIR      37  21  52 W18G30    29.99R WCI  27
HILTON HEAD IS CLEAR     39  19  45 W9G30     30.02R WCI  33
WALTERBORO     CLEAR     37  19  48 W10G20    29.98R WCI  30
ALLENDALE      FAIR      34  19  55 CALM      29.98S

...SOUTHERN MIDLANDS AND PEE DEE...

CITY           SKY/WX    TMP DP  RH WIND       PRES   REMARKS
GEORGETOWN     NOT AVBL
KINGSTREE      NOT AVBL
ORANGEBURG     PTCLDY    35  19  52 W13       29.95R WCI  26
BARNWELL       FAIR      34  21  60 W9        29.98R WCI  26
AIKEN          FAIR      30  18  59 W12G18    29.98R WCI  21
MANNING        FAIR      36  21  55 W7G17     29.93R WCI  30
COLUMBIA       PTCLDY    33  19  56 W12       29.93R WCI  24
SUMTER         MOCLDY    34  22  60 W13       29.89R WCI  25
FLORENCE       CLOUDY    36  25  64 W13       29.88R WCI  27
MYRTLE BEACH   CLOUDY    39  19  45 W13G20    29.92  WCI  32
N MYRTLE BEACH CLOUDY    39  22  50 W9G20     29.89R WCI  33

$$

GAZ063-065-086>088-099>101-113>116-118-119-134>141-150-100500-
...SOUTHEAST GEORGIA...

CITY           SKY/WX    TMP DP  RH WIND       PRES   REMARKS
SAVANNAH ARPT  PTCLDY    37  17  44 NW10G23   30.03R WCI  30
HUNTER AAF     CLEAR     37  18  46 W12G18    30.00R WCI  30
FORT STEWART   PTCLDY    36  22  56 W3        30.02R
STATESBORO     CLEAR     37  20  50 NW6       30.02R WCI  32
SYLVANIA       CLEAR     36  24  63 NW12      30.02R WCI  28
CLAXTON        FAIR      35  26  71 SW3       30.03R

...CSRA...CENTRAL AND FAR SOUTHEAST GEORGIA...

CITY           SKY/WX    TMP DP  RH WIND       PRES   REMARKS
THOMSON        CLEAR     33  21  61 W9G18     30.03R WCI  25
AUGUSTA-BUSH   CLEAR     32  19  58 W8        29.99R WCI  25
AUGUSTA-DANIEL CLEAR     33  15  47 W10G17    29.98R WCI  25
SWAINSBORO     FAIR      32  25  74 CALM      30.03R
VIDALIA        PTCLDY    34  25  69 W5        30.04R WCI  30
EASTMAN        FAIR      33  25  73 CALM      30.08R
HAZLEHURST     FAIR      35  26  69 W3        30.05R
ALMA           PTCLDY    36  24  62 NW5       30.06R WCI  32
WAYCROSS       PTCLDY    39  27  61 NW5       30.06R WCI  35
JESUP          FAIR      39  30  70 NW3       30.06R
BAXLEY         FAIR      36  28  75 W5        30.05R WCI  32
BRUNSWICK      CLEAR     41  25  52 W5        30.06R
SAINT SIMONS   CLEAR     41  22  46 NW10      30.04R

$$

SCZ027-028-034-036>038-045-046-048>050-GAZ119-141-100500-
...LAKE AND SUPPLEMENTAL COASTAL OBSERVATIONS...

STATION/POSITION TIME  TEMP    WIND        PRES    WAVE   SWELL
                       AIR SEA DIR/SP/G            HT/PER HT/PER/DIR
                 (UTC) (F)     (DEG/KT/KT) (MB)    (FT/S) (FT/S/D)
WINYAH BAY       0245   40     270/  8     1012.0
LAKE MURRAY      0300   35     260/ 18/ 24 1012.2S
ACE BASIN NERRS  NOT AVBL
FORT PULASKI     0300   41 52  290/ 26/ 31 1016.1R
SAPELO ISLAND    0300   44     310/ 13     1016.0R

$$

ANZ835-935-AMZ111-154-330-350-352-354-370-450-454-472-100500-
...C-MAN AND BUOY OBSERVATIONS...

STATION/POSITION TIME  TEMP    WIND        PRES    WAVE   SWELL
                       AIR SEA DIR/SP/G            HT/PER HT/PER/DIR
                 (UTC) (F)     (DEG/KT/KT) (MB)    (FT/S) (FT/S/D)
BUOY 41004       0350   45 64  280/ 25/ 31 1013.0R   8/ 8   2/12
BUOY 41008       0350   45 54  310/ 21/ 27 1016.3R   5/ 5
FOLLY BEACH CMAN 0400   38     260/  8/ 12 1014.7R
CAPERS NEARSHORE 0308   42     280/ 17/ 25 1013.3R
FRIPP NEARSHORE  0300   43     300/ 29/ 33 1014.5R


STATION/POSITION TIME  TEMP    WIND        PRES    WAVE   SWELL
                       AIR SEA DIR/SP/G            HT/PER HT/PER/DIR
                 (UTC) (F)     (DEG/KT/KT) (MB)    (FT/S) (FT/S/D)
5E ST. MARYS GA  0321      56                N/A     3/15   2/ 70/15
FRYING PAN BUOY  0300   45 57  270/ 25/ 33 1011.5R
BUOY 41025       0350   47 73  280/ 25/ 31 1007.4R   9/15   5/100/15
CAPE LOOKOUT NC  NOT AVBL
BUOY 41002       0350   56 68  290/ 27/ 33   N/A    19/10  10/330/15
BUOY 41010       0320   64 72              1014.5R
ST AUGUSTINE FL  0400   47 56  290/  7/ 10 1018.8R


$$




USA.gov is the U.S. government's official web portal to all federal, state and local government web resources and services.